Simultaneous Nadir Overpasses (SNOs) Predictions

Prediction of SNOs between METOP-A and TERRA Satellite Orbit:

Table of predicted SNOs for the next 14.0 days since TLE Epoch: 3/16/2017
Index Date (METOP-A) Time (METOP-A) Lat,Lon (METOP-A) SZA (METOP-A ) Date (TERRA) Time (TERRA) Lat,Lon (TERRA) SZA (TERRA ) Distance(km) Time Diff (sec)
1 03/18/2017 22:56:15 -81.32, 63.44 95.52 03/18/2017 22:57:16 -81.32, 63.40 95.51 1.08 61
2 03/18/2017 23:46:55 81.33,-128.95 84.50 03/18/2017 23:46:42 81.32,-128.89 84.50 1.25 13
3 03/21/2017 18:30:36 -81.33, 130.00 96.59 03/21/2017 18:31:30 -81.33, 130.02 96.56 0.43 54
4 03/21/2017 19:21:16 81.33, -62.44 83.43 03/21/2017 19:20:56 81.33, -62.29 83.44 2.51 20
5 03/24/2017 14:04:58 -81.33,-163.46 97.65 03/24/2017 14:05:45 -81.33,-163.40 97.62 1.32 47
6 03/24/2017 14:55:37 81.33, 4.45 82.41 03/24/2017 14:55:11 81.34, 4.27 82.37 3.09 26
7 03/27/2017 09:39:21 -81.32, -97.34 98.76 03/27/2017 09:40:01 -81.32, -97.25 98.74 1.61 40
8 03/27/2017 10:29:59 81.34, 70.93 81.34 03/27/2017 10:29:26 81.34, 70.78 81.31 2.58 33
9 03/30/2017 05:13:42 -81.33, -30.83 99.82 03/30/2017 05:14:15 -81.32, -30.76 99.80 1.32 33




NCC Satellite Simultaneous Nadir Overpasses (SNOs) Prediction Service
